Flag for Brazil Weather past 2 weeks in Pelotas, Rio Grande do Sul, Brazil

Now
54 °F

Light fog.


Feels Like: 54 °F
Forecast: 53 / 75 °F
Wind: No wind

Location: Pelotas Airport

Current Time: Apr 28, 2015 at 1:49:03 AM

Latest Report: Apr 28, 2015 at 1:00 AM


Visibility: 5 mi

Pressure: 30.07 "Hg

Humidity: 100%

Dew point: 54 °F

Location of PelotasLocation

Historic Weather in Pelotas — Graph

°F

Pelotas temperature yesterday

Maximum temperature yesterday: 77 °F (at 1:00 PM)
Minimum temperature yesterday: 52 °F (at 2:00 AM)
Average temperature yesterday: 62 °F

Past Weeks' High & Low Weather Summary

 TemperatureHumidityPressure
High84 °F (Apr 20, 3:00 PM)100% (Apr 13, 12:00 AM)30.18 "Hg (Apr 13, 12:00 AM)
Low48 °F (Apr 25, 5:00 AM)28% (Apr 25, 3:00 PM)29.80 "Hg (Apr 20, 4:00 AM)
Average67 °F86%30.03 "Hg
* Reported Midnight between Apr 12 and Apr 13 — Midnight between Apr 27 and Apr 28, Pelotas, Weather by CustomWeather, © 2015

Note: Actual official high and low records may vary slightly from our data, if they occured in-between our weather recording intervals... More about our weather records

Advertising

Pelotas weather history for previous 24 hours

 ConditionsComfort  
Time TempWeatherWind HumidityBarometerVisibility
12:00 AM
Tue, Apr 28
55 °FClear.No wind100%30.09 "Hg10 mi
11:00 PM
Mon, Apr 27
57 °FClear.No wind100%30.09 "Hg10 mi
10:00 PM59 °FClear.2 mph100%30.09 "Hg10 mi
9:00 PM59 °FClear.2 mph100%30.09 "Hg10 mi
8:00 PM61 °FClear.3 mph100%30.07 "Hg10 mi
7:00 PM63 °FPassing clouds.3 mph100%30.07 "HgN/A
6:00 PM68 °FPassing clouds.6 mph78%30.04 "HgN/A
5:00 PM73 °FPassing clouds.8 mph57%30.04 "HgN/A
4:00 PM75 °FScattered clouds.6 mph54%30.04 "HgN/A
3:00 PM77 °FScattered clouds.5 mph47%30.04 "HgN/A
2:00 PM75 °FScattered clouds.No wind44%30.04 "HgN/A
1:00 PM77 °FPassing clouds.5 mph57%30.07 "HgN/A
12:00 PM75 °FPassing clouds.3 mph69%30.09 "HgN/A
11:00 AM72 °FSunny.3 mph78%30.12 "Hg10 mi
10:00 AM66 °FSunny.1 mph88%30.12 "Hg10 mi
9:00 AM61 °FSunny.2 mph100%30.12 "Hg10 mi
8:00 AM52 °FFog.1 mph100%30.12 "Hg1 mi
7:00 AM52 °FFog.No wind100%30.09 "Hg0 mi
6:00 AM54 °FLight fog.3 mph100%30.09 "Hg3 mi
5:00 AM52 °FLight fog.2 mph100%30.07 "Hg3 mi
4:00 AM52 °FLight fog.No wind100%30.04 "Hg3 mi
3:00 AM54 °FLight fog.No wind100%30.07 "Hg5 mi
2:00 AM52 °FClear.No wind100%30.07 "Hg10 mi
1:00 AM54 °FClear.No wind100%30.09 "Hg10 mi
Weather by CustomWeather, © 2015

See weather overviewHow to use our weather pages